Simultaneous Nadir Overpasses (SNOs) Predictions

Prediction of SNOs between GOES-17 and METOP-B Satellite Orbit:

Table of predicted SNOs for the next 14.0 days since TLE Epoch: 5/14/2022
Index Date Time (GOES-17) GOES-17 Lat,Lon METOP-B Lat,Lon Distance(km) Time Diff (sec)
1 05/14/2022 06:20:33 -0.05,-137.20 0.90,-133.07 470.75 80
2 05/15/2022 18:39:23 0.04,-137.20 0.13,-137.63 48.29 80
3 05/18/2022 06:40:23 -0.03,-137.19 -0.03,-137.23 4.40 80
4 05/20/2022 18:38:34 0.02,-137.16 -0.09,-136.79 43.34 80
5 05/22/2022 06:57:33 -0.02,-137.14 -0.95,-141.38 482.31 80
6 05/23/2022 06:34:13 -0.02,-137.13 0.14,-136.38 85.84 80
7 05/24/2022 18:53:03 0.01,-137.12 0.87,-140.93 435.09 80
8 05/25/2022 18:35:03 0.01,-137.11 -0.22,-135.93 133.09 80
9 05/27/2022 06:54:02 -0.01,-137.08 -0.81,-140.52 392.68 80
